#timestamp,LO_Frequency,Hit 
1500786015.7,286047067.0,N
1500786035.5,286047066.9,N
1500786055.3,286047069.5,N
1500786075.2,286047070.0,N
1500786095.0,286047067.2,N
1500786095.9,286047067.2,N
1500786115.7,286047067.0,N
1500786135.6,286047067.6,N
1500786155.4,286047067.9,N
1500786175.2,286047067.5,N
1500786195.1,286047068.1,N
1500786196.0,286047068.1,N
1500786215.8,286047067.3,N
1500786235.6,286047068.6,N
1500786255.5,286047071.6,N
1500786275.3,286047067.7,N
1500786295.1,286047067.7,N
1500786315.9,286047067.2,N
1500786335.7,286047068.4,N
1500786355.5,286047064.2,N
1500786375.4,286047065.8,N
1500786395.2,286047065.4,N
1500786415.0,286047064.6,N
1500786415.9,286047064.6,N
1500786435.8,286047065.1,N
1500786455.6,286047063.1,N
1500786475.4,286047062.2,N
1500786495.2,286047066.3,N
1500786515.1,286047067.0,N
1500786516.0,286047067.0,N
1500786535.8,286047065.4,N
1500786555.7,286047067.2,N
1500786575.5,286047071.6,N
1500786595.3,286047067.2,N
1500786615.1,286047068.3,N
1500786635.9,286047070.0,N
1500786655.7,286047067.4,N
1500786675.5,286047069.9,N
1500786695.4,286047069.2,N
1500786715.2,286047069.7,N
1500786735.0,286047069.4,N
1500786735.9,286047069.4,N
1500786755.8,286047068.0,N
1500786775.6,286047066.0,N
1500786795.4,286047066.0,N
1500786815.3,286047065.1,N
1500786835.1,286047062.4,N
1500786855.8,286047066.7,N
1500786875.7,286047065.1,N
1500786895.5,286047066.2,N
1500786915.3,286047064.6,N
1500786935.2,286047062.5,N
1500786955.9,286047064.8,N
1500786975.7,286047064.4,N
1500786995.6,286047065.4,N
1500787015.4,286047063.7,N
1500787035.2,286047066.3,N
1500787055.0,286047064.2,N
1500787056.0,286047064.2,N
1500787075.8,286047062.6,N
1500787095.6,286047063.1,N
1500787115.4,286047064.7,N
1500787135.3,286047063.9,N
1500787155.1,286047062.3,N
1500787175.8,286047063.5,N
1500787195.7,286047060.5,N
1500787215.5,286047063.1,N
1500787235.3,286047061.6,N
1500787255.2,286047065.0,N
1500787275.9,286047061.3,N
1500787295.7,286047062.0,N
1500787315.6,286047061.2,N
1500787335.4,286047063.0,N
1500787355.2,286047062.9,N
1500787375.1,286047062.9,N
1500787376.0,286047062.9,N
1500787395.8,286047061.4,N
1500787415.6,286047059.0,N
1500787435.5,286047061.7,N
1500787455.3,286047061.6,N
1500787475.1,286047061.8,N
1500787495.9,286047061.6,N
1500787515.7,286047061.0,N
1500787535.5,286047060.9,N
1500787555.4,286047061.3,N
1500787575.2,286047061.5,N
1500787595.0,286047061.3,N
1500787595.9,286047061.3,N
1500787615.7,286047063.1,N
1500787635.6,286047062.3,N
1500787655.4,286047060.9,N
1500787675.2,286047059.3,N
1500787695.1,286047058.9,N
1500787696.0,286047058.9,N
1500787715.8,286047061.6,N
1500787735.6,286047062.0,N
1500787755.5,286047061.6,N
1500787775.3,286047061.1,N
1500787795.1,286047061.2,N
1500787815.9,286047061.9,N
1500787835.7,286047061.5,N
1500787855.5,286047061.6,N
1500787875.4,286047061.4,N
1500787895.2,286047061.1,N
1500787915.0,286047061.6,N
1500787915.9,286047061.6,N
1500787935.8,286047061.3,N
1500787955.6,286047059.0,N
1500787975.4,286047060.1,N
1500787995.3,286047061.4,N
1500788015.1,286047061.6,N
1500788016.0,286047061.6,N
1500788035.8,286047062.0,N
1500788055.7,286047059.6,N
1500788075.5,286047059.3,N
1500788095.3,286047059.0,N
1500788115.2,286047058.9,N
1500788135.9,286047061.4,N
1500788155.7,286047059.4,N
1500788175.6,286047059.1,N
1500788195.4,286047059.7,N
1500788215.2,286047062.3,N
1500788235.0,286047063.4,N
1500788235.9,286047063.4,N
1500788255.8,286047059.6,N
1500788275.6,286047060.1,N
1500788295.5,286047059.4,N
1500788315.3,286047059.4,N
1500788335.1,286047058.9,N
1500788355.8,286047062.0,N
1500788375.7,286047061.5,N
1500788395.5,286047059.3,N
1500788415.3,286047059.4,N
1500788435.2,286047059.2,N
1500788455.0,286047059.3,N
1500788455.9,286047059.3,N
1500788475.7,286047062.0,N
1500788495.6,286047059.4,N
1500788515.4,286047059.4,N
1500788535.2,286047060.5,N
1500788555.1,286047058.9,N
1500788556.0,286047058.9,N
1500788575.8,286047059.1,N
1500788595.6,286047059.3,N
1500788615.5,286047061.2,N
1500788635.3,286047063.2,N
1500788655.1,286047063.6,N
1500788675.9,286047060.8,N
1500788695.7,286047060.9,N
1500788715.5,286047059.0,N
1500788735.4,286047059.2,N
1500788755.2,286047061.7,N
1500788775.0,286047059.9,N
1500788775.9,286047059.9,N
1500788795.8,286047059.4,N
1500788815.6,286047061.5,N
1500788835.4,286047060.2,N
1500788855.3,286047060.3,N
1500788875.1,286047060.1,N
1500788876.0,286047060.1,N
1500788895.8,286047060.4,N
1500788915.7,286047059.9,N
1500788935.5,286047060.1,N
1500788955.3,286047059.5,N
1500788975.2,286047060.2,N
1500788995.9,286047061.6,N
1500789015.7,286047063.5,N
1500789035.6,286047059.1,N
1500789055.4,286047058.9,N
1500789075.2,286047059.3,N
1500789095.0,286047058.1,N
1500789096.0,286047058.1,N
1500789115.8,286047058.1,N
1500789135.6,286047057.8,N
1500789155.4,286047059.9,N
1500789175.3,286047058.1,N
1500789195.1,286047057.7,N
1500789215.8,286047060.1,N
1500789235.7,286047058.9,N
1500789255.5,286047060.4,N
1500789275.3,286047058.1,N
1500789295.2,286047055.7,N
1500789315.0,286047058.0,N
1500789315.9,286047058.0,N
1500789335.7,286047058.3,N
1500789355.6,286047055.8,N
1500789375.4,286047057.4,N
1500789395.2,286047059.2,N
1500789415.1,286047059.0,N
1500789416.0,286047059.0,N
1500789435.8,286047059.5,N
1500789455.6,286047057.7,N
1500789475.5,286047060.4,N
1500789495.3,286047059.9,N
1500789515.1,286047059.0,N
1500789535.9,286047061.4,N
1500789555.7,286047059.0,N
1500789575.5,286047059.7,N
1500789595.4,286047060.1,N
